Stations météo

réclame
Mon MeteoGroup
Thorney Island, Grande-Bretagne (3872): Température de l'air & dewpoint: 12.07.2019 18:00:00 - 18.07.2019 18:00:00 (BST)Thorney Island, Grande-Bretagne (3872): Température de l'air -20cm & Température de l'air -100cm: 12.07.2019 18:00:00 - 18.07.2019 18:00:00 (BST)Thorney Island, Grande-Bretagne (3872): Vitesse du vent: 12.07.2019 18:00:00 - 18.07.2019 18:00:00 (BST)Thorney Island, Grande-Bretagne (3872): Direction du vent: 12.07.2019 18:00:00 - 18.07.2019 18:00:00 (BST)Thorney Island, Grande-Bretagne (3872): reduced air pressure: 12.07.2019 18:00:00 - 18.07.2019 18:00:00 (BST)Thorney Island, Grande-Bretagne (3872): visibility: 12.07.2019 18:00:00 - 18.07.2019 18:00:00 (BST)Thorney Island, Grande-Bretagne (3872): Quantités de précipitations: 12.07.2019 18:00:00 - 18.07.2019 18:00:00 (BST)
Date & Time tt [°C] td [°C] tt -20cm [°C] tt -100cm [°C] ff [km/h] ff [knt] dd ppp [hPa] vv [km] rr [mm]
18.07.2019 18:00:00 21,5 10,5 - - 16 9 W 1011,6 50 0,0
18.07.2019 17:00:00 22,2 10,7 - - 22 12 W 1011,5 40 0,0
18.07.2019 16:00:00 21,3 11,7 - - 18 10 W 1011,4 50 0,0
18.07.2019 15:00:00 21,2 12,1 - - 18 10 W 1011,3 50 0,0
18.07.2019 14:00:00 21,2 12,7 - - 26 14 W 1011,4 45 0,0
18.07.2019 13:00:00 21,2 13,8 - - 21 11 W 1011,0 50 0,0
18.07.2019 12:00:00 20,1 13,2 - - 24 13 W 1010,9 40 0,0
18.07.2019 11:00:00 18,7 15,1 - - 22 12 W 1010,6 50 0,0
18.07.2019 10:00:00 18,4 16,9 18,7 16,5 21 11 W 1010,1 35 0,2
18.07.2019 09:00:00 17,5 16,5 - - 22 12 SW 1009,8 13 0,0
18.07.2019 08:00:00 17,5 16,3 - - 26 14 SW 1010,0 23 0,0
18.07.2019 07:00:00 16,8 16,4 - - 24 13 SW 1010,2 9 0,4
18.07.2019 06:00:00 17,2 15,6 - - 18 10 SW 1010,1 19 0,0
18.07.2019 05:00:00 17,0 15,2 - - 18 10 SW 1010,7 20 0,0
18.07.2019 04:00:00 16,8 14,9 - - 18 10 WSW 1010,8 21 0,0
18.07.2019 03:00:00 16,5 14,9 - - 13 7 W 1011,2 25 0,0
18.07.2019 02:00:00 16,9 15,8 - - 15 8 W 1011,7 18 0,0
18.07.2019 01:00:00 16,6 15,0 - - 9 5 W 1011,7 19 0,0
18.07.2019 00:00:00 16,8 15,2 - - 13 7 WSW 1012,2 20 0,0
17.07.2019 23:00:00 16,8 15,0 - - 13 7 WSW 1012,4 25 0,0
17.07.2019 22:00:00 16,8 14,3 - - 15 8 WSW 1012,8 35 0,0
17.07.2019 21:00:00 17,1 14,1 - - 18 10 WSW 1012,7 30 0,0
17.07.2019 20:00:00 18,0 14,0 - - 18 10 SW 1012,7 30 0,0
17.07.2019 19:00:00 18,7 12,3 - - 18 10 SW 1013,2 50 0,0
17.07.2019 18:00:00 20,0 9,1 - - 18 10 SW 1013,4 50 0,0
17.07.2019 17:00:00 20,3 13,0 - - 21 11 SSW 1013,6 35 0,0
17.07.2019 16:00:00 21,0 12,7 - - 21 11 SSW 1014,1 30 0,0
17.07.2019 15:00:00 22,3 13,2 - - 16 9 SW 1014,1 30 0,0
17.07.2019 14:00:00 22,1 13,0 - - 15 8 SW 1014,5 50 0,0
17.07.2019 13:00:00 22,0 14,3 - - 16 9 W 1015,1 30 0,0
17.07.2019 12:00:00 19,6 14,5 - - 15 8 S 1015,3 45 0,0
17.07.2019 11:00:00 19,5 14,1 - - 9 5 S 1015,5 30 0,0
17.07.2019 10:00:00 19,4 13,9 18,7 16,5 9 5 SSW 1015,7 30 0,0
17.07.2019 09:00:00 18,0 13,9 - - 5 3 SW 1015,9 26 0,0
17.07.2019 08:00:00 15,8 13,6 - - 4 2 NW 1015,8 25 0,0
17.07.2019 07:00:00 13,8 11,9 - - 5 3 NNE 1015,9 15 0,0
17.07.2019 06:00:00 11,2 10,7 - - 5 3 ENE 1015,9 12 0,0
17.07.2019 05:00:00 11,3 10,7 - - 5 3 ENE 1016,2 10 0,0
17.07.2019 04:00:00 11,3 9,8 - - 5 3 W 1016,3 40 0,0
17.07.2019 03:00:00 12,0 10,1 - - 2 1 WNW 1016,7 30 0,0
17.07.2019 02:00:00 13,5 11,1 - - 8 4 NW 1017,3 35 0,0
17.07.2019 01:00:00 13,9 11,5 - - 5 3 NW 1017,7 35 0,0
17.07.2019 00:00:00 15,0 11,7 - - 11 6 NW 1017,8 50 0,0
16.07.2019 23:00:00 15,0 13,0 - - 8 4 WNW 1018,0 30 0,0
16.07.2019 22:00:00 15,0 12,3 - - 5 3 WSW 1018,2 40 0,0
16.07.2019 21:00:00 16,3 12,8 - - 8 4 SSW 1018,1 35 0,0
16.07.2019 20:00:00 17,7 13,3 - - 9 5 SSW 1018,2 35 0,0
16.07.2019 19:00:00 17,8 13,0 - - 13 7 S 1018,4 35 0,0
16.07.2019 18:00:00 18,4 13,2 - - 15 8 S 1018,7 40 0,0
16.07.2019 17:00:00 18,3 12,9 - - 18 10 S 1019,0 40 0,0
16.07.2019 16:00:00 19,2 13,7 - - 18 10 S 1019,4 40 0,0
16.07.2019 15:00:00 19,0 13,7 - - 18 10 S 1019,6 35 0,0
16.07.2019 14:00:00 18,8 12,5 - - 18 10 S 1019,9 45 0,0
16.07.2019 13:00:00 18,9 13,7 - - 18 10 S 1020,0 29 0,0
16.07.2019 12:00:00 19,0 14,2 - - 16 9 S 1020,1 40 0,0
16.07.2019 11:00:00 18,7 13,9 - - 15 8 S 1020,2 40 0,0
16.07.2019 10:00:00 18,2 12,9 18,4 16,5 9 5 SSW 1020,4 40 -
16.07.2019 09:00:00 17,5 12,7 - - 4 2 WSW 1020,7 35 0,0
16.07.2019 08:00:00 15,1 12,0 - - 5 3 NNW 1020,8 30 0,0
16.07.2019 07:00:00 12,3 10,5 - - 4 2 NE 1020,9 26 0,0
16.07.2019 06:00:00 10,2 9,5 - - 5 3 N 1020,7 23 0,0
16.07.2019 05:00:00 9,0 8,1 - - 5 3 NNE 1020,5 20 0,0
16.07.2019 04:00:00 9,5 8,0 - - 8 4 NNE 1020,7 29 0,0
16.07.2019 03:00:00 10,7 9,2 - - 5 3 NNE 1021,1 26 0,0
16.07.2019 02:00:00 10,9 9,3 - - 8 4 NE 1021,5 27 0,0
16.07.2019 01:00:00 12,1 10,4 - - 9 5 ENE 1021,7 26 0,0
16.07.2019 00:00:00 12,2 9,6 - - 2 1 E 1021,9 50 0,0
15.07.2019 23:00:00 14,1 10,1 - - 8 4 WSW 1021,8 50 0,0
15.07.2019 22:00:00 15,0 10,3 - - 9 5 SSW 1021,9 50 0,0
15.07.2019 21:00:00 15,5 9,9 - - 9 5 S 1021,6 40 0,0
15.07.2019 20:00:00 16,7 10,0 - - 13 7 S 1021,4 50 0,0
15.07.2019 19:00:00 17,5 10,2 - - 15 8 S 1021,2 50 0,0
15.07.2019 18:00:00 18,1 10,7 - - 15 8 S 1021,2 35 0,0
15.07.2019 17:00:00 18,2 10,8 - - 16 9 SSW 1021,6 45 0,0
15.07.2019 16:00:00 18,8 11,2 - - 18 10 SSW 1022,0 30 0,0
15.07.2019 15:00:00 19,0 11,2 - - 5 3 N 1022,3 45 0,0
15.07.2019 14:00:00 19,3 10,5 - - 11 6 E 1022,6 45 0,0
15.07.2019 13:00:00 18,1 10,2 - - 11 6 NE 1022,9 50 0,0
15.07.2019 12:00:00 17,0 10,4 - - 13 7 NE 1023,1 45 0,0
15.07.2019 11:00:00 16,3 10,4 - - 15 8 NE 1023,3 50 0,0
15.07.2019 10:00:00 15,6 9,8 18,7 16,5 15 8 ENE 1023,4 35 0,0
15.07.2019 09:00:00 14,8 9,7 - - 13 7 NE 1023,4 50 0,0
15.07.2019 08:00:00 14,2 10,1 - - 9 5 NNE 1023,1 40 0,0
15.07.2019 07:00:00 12,3 10,0 - - 11 6 NNE 1022,9 45 0,0
15.07.2019 06:00:00 11,2 9,8 - - 13 7 NNE 1022,9 40 0,0
15.07.2019 05:00:00 10,4 8,8 - - 11 6 N 1022,8 45 0,0
15.07.2019 04:00:00 11,3 10,0 - - 8 4 NNE 1022,8 35 0,0
15.07.2019 03:00:00 12,3 10,6 - - 8 4 NNE 1022,9 40 0,0
15.07.2019 02:00:00 13,5 12,8 - - 9 5 NNE 1023,2 28 0,0
15.07.2019 01:00:00 12,9 12,1 - - 5 3 NE 1023,2 8 0,0
15.07.2019 00:00:00 13,8 12,9 - - 2 1 E 1023,2 29 0,0
14.07.2019 23:00:00 14,5 13,0 - - 8 4 ESE 1023,1 35 0,0
14.07.2019 22:00:00 15,6 13,5 - - 5 3 SSE 1022,8 45 0,0
14.07.2019 21:00:00 16,9 14,3 - - 15 8 SSE 1022,4 40 0,0
14.07.2019 20:00:00 18,6 13,9 - - 5 3 ESE 1022,1 45 0,0
14.07.2019 19:00:00 20,8 11,4 - - 21 11 NE 1022,2 50 0,0
14.07.2019 18:00:00 21,1 12,1 - - 9 5 NNE 1022,3 45 0,0
14.07.2019 17:00:00 19,6 13,4 - - 11 6 SSW 1022,5 50 0,0
14.07.2019 16:00:00 20,5 13,1 - - 9 5 NE 1022,8 30 0,0
14.07.2019 15:00:00 21,2 13,2 - - 11 6 NE 1022,6 35 0,0
14.07.2019 14:00:00 21,0 13,1 - - 9 5 NE 1022,9 35 0,0
14.07.2019 13:00:00 19,9 13,2 - - 13 7 NE 1023,1 35 0,0
14.07.2019 12:00:00 18,9 12,4 - - 13 7 ENE 1023,3 50 0,0
14.07.2019 11:00:00 18,8 14,0 - - 15 8 ENE 1023,3 45 0,0
14.07.2019 10:00:00 18,1 13,9 19,2 16,4 13 7 ENE 1023,2 27 0,0
14.07.2019 09:00:00 17,9 13,8 - - 15 8 ENE 1023,0 35 0,0
14.07.2019 08:00:00 16,8 13,9 - - 11 6 NNE 1022,7 13 0,0
14.07.2019 07:00:00 15,4 14,2 - - 11 6 N 1022,5 9 0,0
14.07.2019 06:00:00 14,1 12,7 - - 9 5 NNE 1022,3 10 0,0
14.07.2019 05:00:00 13,8 12,5 - - 8 4 NNE 1022,1 21 0,0
14.07.2019 04:00:00 13,9 12,5 - - 9 5 NNE 1021,9 22 0,0
14.07.2019 03:00:00 13,7 12,3 - - 5 3 E 1022,5 30 0,0
14.07.2019 02:00:00 14,3 12,2 - - 4 2 NNE 1022,4 30 0,0
14.07.2019 01:00:00 15,2 12,5 - - 9 5 NE 1022,2 25 0,0
14.07.2019 00:00:00 16,5 13,4 - - 5 3 NE 1022,1 17 0,0
13.07.2019 23:00:00 17,0 13,0 - - 9 5 ENE 1021,8 35 0,0
13.07.2019 22:00:00 19,5 13,7 - - 13 7 NNE 1021,7 45 0,0
13.07.2019 21:00:00 19,9 13,3 - - 5 3 E 1021,3 50 0,0
13.07.2019 20:00:00 21,5 12,2 - - 9 5 SSE 1021,0 45 0,0
13.07.2019 19:00:00 22,7 12,0 - - 8 4 SE 1020,9 50 0,0
13.07.2019 18:00:00 23,8 11,6 - - 8 4 N 1021,1 50 0,0
13.07.2019 17:00:00 23,0 11,4 - - 8 4 N 1021,2 45 0,0
13.07.2019 16:00:00 23,4 11,1 - - 11 6 NW 1021,4 45 0,0
13.07.2019 15:00:00 23,3 11,2 - - 9 5 N 1021,6 45 0,0
13.07.2019 14:00:00 23,1 12,1 - - 11 6 NNW 1021,9 40 0,0
13.07.2019 13:00:00 22,0 11,4 - - 13 7 NNW 1022,1 40 0,0
13.07.2019 12:00:00 21,0 11,5 - - 13 7 NNW 1022,1 45 0,0
13.07.2019 11:00:00 21,3 11,9 - - 15 8 N 1022,0 45 0,0
13.07.2019 10:00:00 19,7 11,9 19,2 16,4 18 10 N 1021,8 40 0,0
13.07.2019 09:00:00 18,5 11,5 - - 22 12 N 1021,8 50 0,0
13.07.2019 08:00:00 17,1 11,7 - - 18 10 N 1021,7 45 0,0
13.07.2019 07:00:00 15,5 12,0 - - 11 6 N 1021,5 50 0,0
13.07.2019 06:00:00 13,5 11,6 - - 11 6 NW 1021,0 45 0,0
13.07.2019 05:00:00 13,0 11,3 - - 9 5 WNW 1020,8 50 0,0
13.07.2019 04:00:00 13,3 11,1 - - 11 6 WNW 1020,2 50 0,0
13.07.2019 03:00:00 14,5 11,5 - - 11 6 NW 1020,4 50 0,0
13.07.2019 02:00:00 15,2 11,7 - - 11 6 NW 1020,0 50 0,0
13.07.2019 01:00:00 15,8 11,3 - - 9 5 WNW 1020,2 50 0,0
13.07.2019 00:00:00 17,1 11,4 - - 13 7 NNW 1019,9 50 0,0
12.07.2019 23:00:00 18,2 11,3 - - 9 5 NNW 1019,4 50 0,0
12.07.2019 22:00:00 19,3 10,9 - - 9 5 N 1018,7 50 0,0
12.07.2019 21:00:00 21,2 10,9 - - 15 8 N 1017,8 50 0,0
12.07.2019 20:00:00 23,0 10,8 - - 16 9 N 1017,1 50 0,0
12.07.2019 19:00:00 24,3 10,9 - - 16 9 N 1016,2 45 0,0
12.07.2019 18:00:00 24,8 10,8 - - 18 10 N 1015,8 45 0,0

tt = Température de l'air
td = dewpoint
tt -20cm = Température de l'air -20cm
tt -100cm = Température de l'air -100cm
ff = Vitesse du vent
dd = Direction du vent
ppp = reduced air pressure
vv = visibility
rr = Quantités de précipitations

stations d'obs. à proximité